Location: Blackwall
(51.5097°N, 0.0016°W)
Time: 00:14:41
(UTC+00:00)

Cosmos 1626 Rocket - Pass Details

Date: 15 May 2026
Orbit: 597 x 622 km, 82.5° (Epoch: 9 June)

Event Time Altitude Azimuth Distance (km) Brightness Sun altitude
Rises 20:54:16 0° 347° (NNW) 2,882 8.1 -9.0°
Reaches altitude 10° 20:56:29 10° 346° (NNW) 1,976 7.2 -9.3°
Maximum altitude 21:00:51 73° 263° (W) 648 3.8 -9.7°
Drops below altitude 10° 21:05:13 10° 179° (S) 1,975 5.7 -10.2°
Enters shadow 21:05:45 - 178° (S) 2,195 5.9 -10.2°
